Preview of NWS' New Version of Forecast
This preview is not operational and should not be used for support decisions.

Regional Weather Roundup (RWR)

Issued by National Weather Service (NWS)

                            
000
ASUS44 KJAN 182110
RWRMS 

MISSISSIPPI HOURLY WEATHER ROUNDUP
NATIONAL WEATHER SERVICE JACKSON MS
400 PM CDT THU APR 18 2019

NOTE: "FAIR: INDICATES FEW OR NO CLOUDS BELOW 12,000 FEET WITH NO
SIGNIFICANT WEATHER AND/OR OBSTRUCTIONS TO VISIBILITY.

MSZ001>002-007>008-010>013-018>021-025>028-034>036-182200-
NORTHWEST MISSISSIPPI
  
CITY           SKY/WX    TMP DP  RH WIND       PRES   REMARKS
BATESVILLE     TSTM      63  63 100 S5        29.74S                  
CLARKSDALE     CLOUDY    63  63 100 SE9       29.73F FOG              
CLEVELAND      RAIN      61  61 100 E6        29.72F                  
GREENWOOD      HVY RAIN  61  60  97 N5        29.76S FOG              
GREENVILLE     RAIN      61  60  97 E20       29.62F FOG              
OLIVE BRANCH   TSTM      63  63 100 SW6       29.72R                  
OXFORD         RAIN      59  59 100 NW9       29.75R                  
TUNICA         RAIN      61  61 100 SE6       29.72F                  
WINONA         TSTM      61  61 100 NW14G22   29.72S                  
$$

MSZ003>006-009-014>017-022>024-029>033-037>039-182200-
NORTHEAST MISSISSIPPI
  
CITY           SKY/WX    TMP DP  RH WIND       PRES   REMARKS
ABERDEEN       FAIR      73  72  94 SE5       29.66F                  
COLUMBUS AFB   FAIR      73  63  68 SE5       29.63F                  
CORINTH        CLOUDY    68  63  83 NW9       29.67F THUNDER          
GOLDN TRIANGLE PTSUNNY   75  63  66 SE7       29.65F                  
STARKVILLE     CLOUDY    68  64  88 W5        29.69R                  
TUPELO         CLOUDY    65  62  90 W7        29.68S THUNDER          
$$

MSZ040-058-182200-
CENTRAL MISSISSIPPI
  
CITY           SKY/WX    TMP DP  RH WIND       PRES   REMARKS
JACKSON INTL   TSTM      62  59  90 NW22G33   29.72R FOG              
JACKSON HAWKNS TSTM      61  60  97 N9G32     29.67F FOG              
MADISON        CLOUDY    61  61 100 NW15G30   29.73R                  
MERIDIAN KEY   TSTM      71  67  87 S13G22    29.66F FOG              
MERIDIAN NAS   CLOUDY    75  66  73 S9        29.66F THUNDER          
RAYMOND        RAIN      61  61 100 N9G18     29.66F                  
VICKSBURG VKS  CLOUDY    61  61 100 NE12G23   29.63F FOG              
$$

MSZ059>079-182200-
SOUTH MISSISSIPPI
  
CITY           SKY/WX    TMP DP  RH WIND       PRES   REMARKS
HATTIESBURG    TSTM      70  68  93 SE12      29.69F FOG              
LAUREL         HVY RAIN  70  68  95 SW14      29.68R FOG              
MCCOMB         TSTM      63  59  87 NE7       29.69F FOG              
NATCHEZ        TSTM      61  59  94 VRB5      29.63F                  
PINE BELT      TSTM      70  68  94 SE13      29.67F FOG              
$$

MSZ080>082-182200-
COASTAL MISSISSIPPI
  
CITY           SKY/WX    TMP DP  RH WIND       PRES   REMARKS
BAY ST LOUIS   TSTM      72  70  94 SE15      29.67F                  
BILOXI         CLOUDY    73  70  88 S15G24    29.70S                  
PASCAGOULA     CLOUDY    76  68  76 SE20G25   29.72F                  
GULFPORT       HVY RAIN  73  70  90 SE18      29.70S                  
$$

LAZ007>009-015>016-023>026-182200-
NORTHEAST LOUISIANA
  
CITY           SKY/WX    TMP DP  RH WIND       PRES   REMARKS
BASTROP        CLOUDY    61  60  97 E5        29.64R                  
TALLULAH/VBURG RAIN      61  59  93 NE14G24   29.63F FOG              
VIDALIA        LGT RAIN  61  60  94 NE7       29.62R                  
$$